Date String (YYYY-MM-DD hh:mm:ss) UTC,Instrument flags,Ambient pressure (hPa),Sample flow (lpm),Bypass flow (lpm),Sample temperature (°C),Ambient temperature (°C),ASC tube jacket temperature (°C),LED temperature (°C),Box temperature (°C),Sample RH (%),Span deviation,Mass concentration (μg/m³),Mass concentration (μg/m³),Mass concentration (μg/m³)
DateTimeUTC,F1_M11,P_M11,Q1_M11,Q2_M11,T1_M11,T2_M11,T3_M11,T4_M11,T5_M11,U1_M11,ZSPAN_M11,X0_M11,X2_M11,X1_M11
2023-04-12 10:00:00,,0826.8,4.99,0.00,29.2,27.4,00.0,37.5,30.7,07.8,0000.0,0011.22,0004.00,0002.84
2023-04-12 10:01:00,,0826.8,5.00,0.00,29.2,27.4,00.0,37.5,30.7,07.9,0000.0,0011.02,0003.93,0002.82
2023-04-12 10:02:00,,0826.6,5.01,0.00,29.2,27.4,00.0,37.5,30.7,08.0,0000.0,0012.32,0003.91,0002.82
2023-04-12 10:03:00,,0826.6,5.01,0.00,29.2,27.4,00.0,37.5,30.7,07.9,0000.0,0012.41,0003.93,0002.81
2023-04-12 10:04:00,,0826.6,5.00,0.00,29.2,27.4,00.0,37.5,30.7,07.9,0000.0,0012.49,0003.94,0002.81
2023-04-12 10:05:00,,0826.6,5.01,0.00,29.1,27.3,00.0,37.5,30.7,08.0,0000.0,0012.57,0003.94,0002.80
2023-04-12 10:06:00,,0826.6,4.99,0.00,29.1,27.3,00.0,37.5,30.6,08.0,0000.0,0012.69,0003.98,0002.80
2023-04-12 10:07:00,,0826.6,5.00,0.00,29.1,27.3,00.0,37.5,30.6,08.0,0000.0,0013.21,0003.96,0002.79
2023-04-12 10:08:00,,0826.6,5.00,0.00,29.1,27.3,00.0,37.5,30.6,07.9,0000.0,0013.68,0003.95,0002.79
2023-04-12 10:09:00,,0826.6,5.00,0.00,29.1,27.3,00.0,37.5,30.6,07.9,0000.0,0013.33,0003.94,0002.77
2023-04-12 10:10:00,,0826.6,4.99,0.00,29.1,27.3,00.0,37.5,30.6,08.0,0000.0,0012.93,0003.95,0002.76
2023-04-12 10:11:00,,0826.6,5.00,0.00,29.1,27.3,00.0,37.5,30.6,08.0,0000.0,0012.84,0003.96,0002.77
2023-04-12 10:12:00,,0826.6,5.00,0.00,29.1,27.3,00.0,37.5,30.6,08.2,0000.0,0012.26,0003.94,0002.76
2023-04-12 10:13:00,,0826.6,5.00,0.00,29.1,27.3,00.0,37.5,30.5,08.2,0000.0,0011.03,0003.96,0002.75
2023-04-12 10:14:00,,0826.6,5.00,0.00,29.1,27.3,00.0,37.5,30.5,08.0,0000.0,0011.38,0003.97,0002.74
2023-04-12 10:15:00,,0826.6,4.99,0.00,29.1,27.2,00.0,37.5,30.5,08.0,0000.0,0011.31,0003.95,0002.73
2023-04-12 10:16:00,,0826.6,5.00,0.00,29.0,27.2,00.0,37.5,30.5,08.0,0000.0,0011.25,0003.91,0002.73
2023-04-12 10:17:00,,0826.6,5.02,0.00,29.0,27.2,00.0,37.5,30.5,08.0,0000.0,0011.44,0003.91,0002.70
2023-04-12 10:18:00,,0826.6,4.99,0.00,29.0,27.2,00.0,37.4,30.5,08.0,0000.0,0011.32,0003.98,0002.69
2023-04-12 10:19:00,,0826.6,4.99,0.00,29.0,27.2,00.0,37.4,30.5,08.0,0000.0,0010.64,0003.99,0002.68
2023-04-12 10:20:00,,0826.6,5.00,0.00,29.0,27.2,00.0,37.4,30.5,08.0,0000.0,0011.04,0004.00,0002.68
2023-04-12 10:21:00,,0826.6,5.01,0.00,29.0,27.1,00.0,37.4,30.5,08.0,0000.0,0011.20,0003.97,0002.69
2023-04-12 10:22:00,,0826.6,5.01,0.00,29.0,27.1,00.0,37.4,30.5,08.0,0000.0,0011.79,0003.95,0002.67
2023-04-12 10:23:00,,0826.6,5.00,0.00,29.0,27.2,00.0,37.4,30.5,08.1,0000.0,0012.37,0004.00,0002.69
2023-04-12 10:24:00,,0826.6,4.99,0.00,29.0,27.2,00.0,37.4,30.5,08.0,0000.0,0012.15,0004.00,0002.68
2023-04-12 10:25:00,,0826.6,4.99,0.00,29.0,27.2,00.0,37.4,30.5,08.0,0000.0,0011.60,0003.97,0002.68
2023-04-12 10:26:00,,0826.6,4.99,0.00,29.0,27.2,00.0,37.4,30.5,08.0,0000.0,0011.55,0003.94,0002.67
2023-04-12 10:27:00,,0826.6,5.00,0.00,29.0,27.2,00.0,37.4,30.5,08.0,0000.0,0012.63,0003.98,0002.67
2023-04-12 10:28:00,,0826.6,5.01,0.00,29.0,27.2,00.0,37.4,30.5,08.0,0000.0,0012.29,0003.93,0002.68
2023-04-12 10:29:00,,0826.6,5.01,0.00,29.0,27.2,00.0,37.4,30.5,08.2,0000.0,0011.97,0003.85,0002.68
2023-04-12 10:30:00,,0826.6,5.00,0.00,29.0,27.2,00.0,37.4,30.5,08.3,0000.0,0011.73,0003.80,0002.68
2023-04-12 10:31:00,,0826.6,4.99,0.00,28.9,27.1,00.0,37.4,30.5,08.4,0000.0,0011.17,0003.82,0002.66
2023-04-12 10:32:00,,0826.6,5.00,0.00,28.9,27.1,00.0,37.4,30.4,08.1,0000.0,0010.69,0003.84,0002.64
2023-04-12 10:33:00,,0826.7,5.01,0.00,28.9,27.1,00.0,37.3,30.4,08.1,0000.0,0009.95,0003.81,0002.64
2023-04-12 10:34:00,,0826.7,5.00,0.00,28.9,27.1,00.0,37.3,30.4,08.1,0000.0,0009.42,0003.78,0002.62
2023-04-12 10:35:00,,0826.6,5.00,0.00,28.9,27.1,00.0,37.3,30.4,08.0,0000.0,0010.15,0003.78,0002.61
2023-04-12 10:36:00,,0826.6,5.00,0.00,28.9,27.1,00.0,37.3,30.4,07.9,0000.0,0010.42,0003.80,0002.59
2023-04-12 10:37:00,,0826.6,5.00,0.00,28.9,27.1,00.0,37.3,30.4,08.0,0000.0,0010.13,0003.80,0002.59
2023-04-12 10:38:00,,0826.6,5.00,0.00,28.9,27.1,00.0,37.3,30.4,08.0,0000.0,0009.25,0003.78,0002.59
2023-04-12 10:39:00,,0826.6,4.99,0.00,28.9,27.1,00.0,37.3,30.4,08.2,0000.0,0009.45,0003.81,0002.59
2023-04-12 10:40:00,,0826.6,5.00,0.00,28.9,27.1,00.0,37.3,30.4,08.3,0000.0,0009.81,0003.82,0002.58
2023-04-12 10:41:00,,0826.5,5.00,0.00,28.9,27.1,00.0,37.3,30.4,08.1,0000.0,0010.13,0003.87,0002.59
2023-04-12 10:42:00,,0826.5,5.00,0.00,28.9,27.1,00.0,37.3,30.4,08.0,0000.0,0010.43,0003.90,0002.59
2023-04-12 10:43:00,,0826.6,5.00,0.00,28.9,27.1,00.0,37.3,30.4,08.0,0000.0,0010.63,0003.92,0002.61
2023-04-12 10:44:00,,0826.6,5.00,0.00,28.9,27.1,00.0,37.3,30.4,08.0,0000.0,0010.91,0003.89,0002.60
2023-04-12 10:45:00,,0826.6,5.00,0.00,28.9,27.1,00.0,37.3,30.4,08.2,0000.0,0010.92,0003.85,0002.60
2023-04-12 10:46:00,,0826.6,4.99,0.00,28.9,27.0,00.0,37.3,30.3,08.7,0000.0,0010.84,0003.82,0002.58
2023-04-12 10:47:00,,0826.5,5.01,0.00,28.9,27.0,00.0,37.3,30.3,08.7,0000.0,0010.92,0003.77,0002.55
2023-04-12 10:48:00,,0826.4,5.00,0.00,28.8,27.0,00.0,37.2,30.3,08.5,0000.0,0010.80,0003.73,0002.53
2023-04-12 10:49:00,,0826.4,5.00,0.00,28.8,27.0,00.0,37.2,30.3,08.4,0000.0,0010.51,0003.69,0002.52
2023-04-12 10:50:00,,0826.4,5.00,0.00,28.8,26.9,00.0,37.2,30.3,08.0,0000.0,0010.26,0003.65,0002.50
2023-04-12 10:51:00,,0826.4,5.00,0.00,28.8,26.9,00.0,37.2,30.3,08.0,0000.0,0009.88,0003.66,0002.49
2023-04-12 10:52:00,,0826.4,4.99,0.00,28.8,26.9,00.0,37.2,30.3,08.0,0000.0,0010.18,0003.68,0002.49
2023-04-12 10:53:00,,0826.4,5.00,0.00,28.8,26.9,00.0,37.2,30.3,08.0,0000.0,0009.94,0003.62,0002.47
2023-04-12 10:54:00,,0826.4,5.00,0.00,28.8,27.0,00.0,37.2,30.3,08.0,0000.0,0010.88,0003.56,0002.45
2023-04-12 10:55:00,,0826.4,5.00,0.00,28.8,27.0,00.0,37.2,30.3,08.0,0000.0,0010.77,0003.59,0002.45
2023-04-12 10:56:00,,0826.4,5.01,0.00,28.8,27.0,00.0,37.2,30.3,08.0,0000.0,0010.96,0003.64,0002.44
2023-04-12 10:57:00,,0826.4,5.00,0.00,28.8,27.0,00.0,37.2,30.3,08.1,0000.0,0010.81,0003.66,0002.44
2023-04-12 10:58:00,,0826.4,5.00,0.00,28.8,27.0,00.0,37.2,30.3,08.2,0000.0,0011.01,0003.67,0002.45
2023-04-12 10:59:00,,0826.4,4.99,0.00,28.8,27.0,00.0,37.2,30.3,08.2,0000.0,0011.52,0003.69,0002.45
